This is the latest recevied weather packets stored in our database for station/object DH8TOM-3. If no packets are shown the sender has not sent any weather packets the latest 10 day(s).
| Time | Temp. | Humidity | Pressure | Rain* | Wind** | Luminosity | Snow |
|---|---|---|---|---|---|---|---|
| 1788171914 | 21.11° C | 75% | 1012.2 hPa | 0 mm | - | - | - |
| 1788171313 | 21.11° C | 77% | 1012.2 hPa | 0 mm | - | - | - |
| 1788170712 | 20.56° C | 78% | 1012.2 hPa | 0 mm | - | - | - |
| 1788170109 | 20.56° C | 78% | 1012.2 hPa | 0 mm | - | - | - |
| 1788169507 | 20° C | 78% | 1012.3 hPa | 0.25 mm | - | - | - |
| 1788168915 | 20° C | 80% | 1012.2 hPa | 0.51 mm | - | - | - |
| 1788168303 | 19.44° C | 81% | 1012.3 hPa | 0.51 mm | - | - | - |
| 1788167709 | 19.44° C | 80% | 1012.3 hPa | 0.51 mm | - | - | - |
| 1788167400 | 19.44° C | 81% | 1012.1 hPa | 0.51 mm | - | - | - |
| 1788167099 | 19.44° C | 81% | 1012.1 hPa | 0.51 mm | - | - | - |
| 1788166798 | 19.44° C | 79% | 1012.1 hPa | 0.25 mm | - | - | - |
| 1788166497 | 19.44° C | 79% | 1012.1 hPa | 0.25 mm | - | - | - |
| 1788166197 | 19.44° C | 79% | 1012.1 hPa | 0 mm | - | - | - |
| 1788165895 | 19.44° C | 79% | 1012.1 hPa | 0 mm | - | - | - |
| 1788165594 | 19.44° C | 79% | 1012.1 hPa | 0 mm | - | - | - |
| 1788165293 | 19.44° C | 79% | 1012.1 hPa | 0 mm | - | - | - |
| 1788164992 | 19.44° C | 80% | 1012 hPa | 0 mm | - | - | - |
| 1788164691 | 19.44° C | 80% | 1012 hPa | 0 mm | - | - | - |
| 1788164390 | 19.44° C | 81% | 1011.9 hPa | 0 mm | - | - | - |
| 1788164089 | 19.44° C | 81% | 1011.9 hPa | 0 mm | - | - | - |
| 1788163806 | 18.89° C | 81% | 1011.8 hPa | 0.25 mm | - | - | - |
| 1788163486 | 18.89° C | 81% | 1011.8 hPa | 0.25 mm | - | - | - |
| 1788163186 | 18.33° C | 83% | 1011.8 hPa | 0.25 mm | - | - | - |
| 1788162885 | 18.33° C | 83% | 1011.8 hPa | 0.25 mm | - | - | - |
| 1788162584 | 18.33° C | 83% | 1012 hPa | 1.02 mm | - | - | - |
* Rain latest hour (hover to see other rain measurements)
** Current wind speed in m/s (hover to see current wind gust speed)